This is the latest recevied weather packets stored in our database for station/object KD9JB-1. If no packets are shown the sender has not sent any weather packets the latest 10 day(s).
| Time | Temp. | Humidity | Pressure | Rain* | Wind** | Luminosity | Snow |
|---|---|---|---|---|---|---|---|
| 1778269888 | 21.67° C | 48% | 1010.9 hPa | 0 mm | - | - | - |
| 1778269588 | 21.67° C | 47% | 1010.9 hPa | 0 mm | - | - | - |
| 1778269288 | 22.22° C | 46% | 1011 hPa | 0 mm | - | - | - |
| 1778268988 | 22.22° C | 45% | 1011 hPa | 0 mm | - | - | - |
| 1778268688 | 22.78° C | 45% | 1011.2 hPa | 0 mm | - | - | - |
| 1778268388 | 22.22° C | 46% | 1011.3 hPa | 0 mm | - | - | - |
| 1778268088 | 22.78° C | 46% | 1011.2 hPa | 0 mm | - | - | - |
| 1778267788 | 22.22° C | 48% | 1011.2 hPa | 0 mm | - | - | - |
| 1778267488 | 22.22° C | 46% | 1011.2 hPa | 0 mm | - | - | - |
| 1778267188 | 22.78° C | 46% | 1011.4 hPa | 0 mm | - | - | - |
| 1778266888 | 23.33° C | 44% | 1011.5 hPa | 0 mm | - | - | - |
| 1778266588 | 23.33° C | 46% | 1011.5 hPa | 0 mm | - | - | - |
| 1778266288 | 23.33° C | 42% | 1011.6 hPa | 0 mm | - | - | - |
| 1778265988 | 23.33° C | 44% | 1011.8 hPa | 0 mm | - | - | - |
| 1778265688 | 23.33° C | 44% | 1011.9 hPa | 0 mm | - | - | - |
| 1778265388 | 22.78° C | 43% | 1012.1 hPa | 0 mm | - | - | - |
| 1778265088 | 22.22° C | 42% | 1012.1 hPa | 0 mm | - | - | - |
| 1778264788 | 22.78° C | 43% | 1012.2 hPa | 0 mm | - | - | - |
| 1778264488 | 22.78° C | 44% | 1012.3 hPa | 0 mm | - | - | - |
| 1778264188 | 22.78° C | 43% | 1012.3 hPa | 0 mm | - | - | - |
| 1778263888 | 22.22° C | 43% | 1012.4 hPa | 0 mm | - | - | - |
| 1778263588 | 22.22° C | 42% | 1012.5 hPa | 0 mm | - | - | - |
| 1778263288 | 22.22° C | 45% | 1012.5 hPa | 0 mm | - | - | - |
| 1778262988 | 22.22° C | 46% | 1012.6 hPa | 0 mm | - | - | - |
| 1778262688 | 21.67° C | 44% | 1012.6 hPa | 0 mm | - | - | - |
* Rain latest hour (hover to see other rain measurements)
** Current wind speed in m/s (hover to see current wind gust speed)